Regional Weather Roundup
Issued by NWS New Orleans/Baton Rouge, LA

Home | Current Version | Previous Version | Text Only | Print | Product List | Glossary On
Versions: 1 2 3 4 5 6 7 8 9 10 11 12 13 14 15 16 17 18 19 20 21 22 23 24 25 26 27
000
ASUS44 KLIX 041111
RWRLIX
NEW ORLEANS REGIONAL WEATHER ROUNDUP
NATIONAL WEATHER SERVICE NEW ORLEANS LA
600 AM CDT WED MAY 04 2016

NOTE: "FAIR" INDICATES FEW OR NO CLOUDS BELOW 12,000 FEET WITH NO
      SIGNIFICANT WEATHER AND/OR OBSTRUCTIONS TO VISIBILITY.
      SKY/WX - SKY CONDITION AND SIGNIFICANT WEATHER.
      TMP - AIR TEMPERATURE.     DP    - DEWPOINT TEMPERATURE.
      RH  - RELATIVE HUMIDITY.   PRES  - PRESSURE.
      HI  - HEAT INDEX.          WCI   - WIND CHILL INDEX.

*  THESE STATIONS ARE NOT NWS OR FAA STATIONS AND ARE NOT UNDER
   NWS QUALITY CONTROL.

LAZ038-040-048-061>063-065>067-069-041200-
SOUTHEAST LOUISIANA

CITY           SKY/WX    TMP DP  RH WIND       PRES   REMARKS
N.O. AUDUBON     N/A     64  50  60 MISG        N/A
N.O. INTL ARPT PTCLDY    64  49  57 N13       29.94S
N.O. LAKEFRONT PTCLDY    60  51  72 N25       29.94F
N.O. DOWNTOWN*   N/A     64  49  57 N10G16    29.95R
RESERVE*         N/A     60  51  73 N6        29.95S
SLIDELL        CLEAR     57  54  89 N5        29.94R
BATON ROUGE    CLEAR     55  50  83 CALM      29.97S
BOOTHVILLE     MOCLDY    67  55  65 N14G22    29.91S
BELLE CHASSE   PTCLDY    61  51  70 VRB6      29.93R
BOGALUSA*        N/A     53  49  87 N5        29.97S
GALLIANO*      PTSUNNY   63  58  83 N6        29.94R
NEW ROADS*       N/A     55  52  90 NW5       29.99S
GONZALES*        N/A     58  49  73 N8        29.95S
HAMMOND*       CLEAR     54  48  82 N6        29.95S
HOUMA*         CLEAR     59  55  88 N6        29.95R
PORT FOURCHON* MOSUNNY   66  55  68 N17G24    29.93R

$$

MSZ070-080>082-041200-
SOUTHERN MISSISSIPPI

CITY           SKY/WX    TMP DP  RH WIND       PRES   REMARKS
MCCOMB         PTCLDY    52  50  93 CALM      29.97R
GULFPORT       PTCLDY    58  50  75 N12       29.92S
BILOXI         PTCLDY    59  53  81 N10       29.91S
PASCAGOULA     CLEAR     57  52  83 N9        29.91S

$$

COASTAL OBSERVATIONS
LAKE AND NEARSHORE STATIONS

STATION/POSITION TIME  TEMP    WIND        PRES    WAVE
                       AIR SEA DIR/SP/G            HT/PER
                 (UTC) (F)     (DEG/KT/KT) (MB)    (FT/S)
PASCAGOULA       1000   60     350/  9/ 13 1012.0
WAVELAND YACHT   1000   61 71  360/  9/ 13 1013.2
GRAND ISLE       1000   67 75   30/ 18/ 21 1012.4
SOUTHWEST PASS   1000           10/ 24/ 27   N/A
NEW CANAL        1000   66 74   10/ 17/ 21 1013.0
SHELL BEACH      1000   65 74  360/ 21/ 25 1013.1

OFFSHORE STATIONS

STATION/POSITION TIME  TEMP    WIND        PRES    WAVE
                       AIR SEA DIR/SP/G            HT/PER
                 (UTC) (F)     (DEG/KT/KT) (MB)    (FT/S)
64 S DAUPHIN ISL 1000   71 76  350/ 21/ 25 1010.9

$$





USA.gov is the U.S. government's official web portal to all federal, state and local government web resources and services.